Regional Weather Roundup
Issued by NWS

Home | Current Version | Previous Version | Text Only | Print | Product List | Glossary On
Versions: 1 2 3 4 5 6 7 8 9 10 11 12 13 14 15 16 17 18 19 20 21 22 23 24 25 26 27 28 29 30 31 32 33 34 35 36 37 38 39 40 41 42 43 44 45 46 47 48 49 50
235
ASUS43 KDMX 280801
RWRIA

WEATHER ROUNDUP FOR IOWA
NATIONAL WEATHER SERVICE DES MOINES IA
300 AM CDT TUE MAR 28 2017

NOTE: "FAIR" INDICATES FEW OR NO CLOUDS BELOW 12,000 FEET WITH NO
SIGNIFICANT WEATHER AND/OR OBSTRUCTIONS TO VISIBILITY.

* - THESE STATIONS ARE NOT NWS STATIONS...THUS NOT UNDER NWS
QUALITY CONTROL.  THEY ALSO DO NOT REPORT WEATHER SUCH
AS PRECIPITATION OR FOG.

IAZ001>003-012>014-020>022-031>034-043>046-280900-
   NORTHWEST IOWA

CITY           SKY/WX    TMP DP  RH WIND       PRES   REMARKS
CARROLL *      CLOUDY    43  41  93 CALM      30.04R
CHEROKEE *     CLEAR     34  34 100 NE3       30.06S
DENISON *      CLOUDY    45  41  87 CALM      30.06R
LE MARS *      PTCLDY    32  32 100 CALM      30.07S FOG
ORANGE CITY *  PTCLDY    39  37  93 CALM      30.06S
SHELDON *      CLOUDY    34  32  93 CALM      30.05R
SIOUX CITY     CLEAR     34  33  96 CALM      30.06S
SPENCER        CLOUDY    31  30  96 NW3       30.06R
STORM LAKE *   CLEAR     41  39  93 CALM      30.05R
$$

IAZ055>058-069>071-079>083-090>094-280900-
   SOUTHWEST IOWA

CITY           SKY/WX    TMP DP  RH WIND       PRES   REMARKS
ATLANTIC *     CLOUDY    46  39  76 E6        30.04S
AUDUBON *      CLOUDY    45  41  87 CALM      30.05S
CLARINDA *     CLOUDY    46  45  93 E3        30.06S
COUNCIL BLFS * PTCLDY    39  39 100 N5        30.04S
CRESTON *      CLOUDY    45  41  87 W3        30.05S
HARLAN  *      CLOUDY    45  45 100 CALM      30.07F
LAMONI         CLOUDY    46  42  86 N6        30.03R
RED OAK *      CLOUDY    46  43  87 NE6       30.04S
SHENANDOAH *   CLOUDY    46  43  87 CALM      30.04S
$$

IAZ047>049-059>061-072>074-084-280900-
   CENTRAL IOWA

CITY           SKY/WX    TMP DP  RH WIND       PRES   REMARKS
AMES           CLOUDY    45  44  97 W3        30.04R
ANKENY *       CLOUDY    46  41  81 CALM      30.05S
BOONE *        CLOUDY    45  45 100 N3        30.03S
CHARITON *     CLOUDY    46  43  87 N3        30.03S
DES MOINES     CLOUDY    47  41  80 NE3       30.04S
GRINNELL*      CLOUDY    45  41  88 NW5       30.04S
MARSHALLTOWN   CLOUDY    45  43  93 CALM      30.03R
NEWTON *       CLOUDY    45  41  87 NW5       30.03R
PELLA *        CLOUDY    45  42  90 CALM      30.05S
PERRY *        CLOUDY    45  43  93 W5        30.04S
$$

IAZ004>006-015-016-023>025-035-036-280900-
   NORTH CENTRAL IOWA

CITY           SKY/WX    TMP DP  RH WIND       PRES   REMARKS
ALGONA *       FOG       34  34 100 CALM      30.05R VSB<1/4
CLARION *      FOG       34  34 100 CALM      30.05S VSB 1/4
ESTHERVILLE    CLEAR     35  35 100 NW9       30.05R WCI  28
FORT DODGE *   CLOUDY    32  28  86 CALM      30.05S VSB 1
MASON CITY     MOCLDY    32  32 100 W3        30.06R
FOREST CITY *  FOG       30  28  93 CALM      30.05R VSB 1/4
WEBSTER CITY * CLOUDY    41  41 100 CALM      30.03S
IOWA FALLS *   CLOUDY    44  42  93 NW3       30.05R
$$

IAZ007>011-017>019-026>030-037>042-050>054-066-280900-
   NORTHEAST IOWA

CITY           SKY/WX    TMP DP  RH WIND       PRES   REMARKS
CEDAR RAPIDS   CLOUDY    45  45 100 N3        30.01R
CHARLES CITY * CLOUDY    43  43 100 N5        30.04R
CLINTON *      CLOUDY    46  45  96 N6        30.01S
DECORAH *      CLOUDY    43  39  87 N3        30.03R
DUBUQUE        FOG       45  45 100 NE6       30.01R VSB 1/2
MONTICELLO *   CLOUDY    46  45  93 CALM      30.01S
OELWEIN *      CLOUDY    45  45 100 NE8       30.03R
WATERLOO       CLOUDY    45  41  86 N3        30.03R
$$

IAZ064-065-067-068-078-280900-
   EAST CENTRAL IOWA

CITY           SKY/WX    TMP DP  RH WIND       PRES   REMARKS
DAVENPORT      CLOUDY    47  44  90 N6        30.01R
IOWA CITY      CLOUDY    50  45  83 N5        30.03R
MUSCATINE *    CLOUDY    48  45  87 CALM      30.02R
QUAD CITIES    CLOUDY    49  44  83 N5        30.00S
$$

IAZ062-063-075>077-085>089-095>099-280900-
   SOUTHEAST IOWA

CITY           SKY/WX    TMP DP  RH WIND       PRES   REMARKS
BURLINGTON     CLOUDY    49  47  93 NW5       30.00R
FAIRFIELD *    CLOUDY    46  46 100 NW6       30.02R FOG
FORT MADISON * CLOUDY    48  46  93 CALM      30.01S FOG
KEOKUK *       CLOUDY    48  46  93 NW5       30.00R
OSKALOOSA *    CLOUDY    46  43  90 N7        30.03R
OTTUMWA        CLOUDY    47  45  93 NW7       30.02R
WASHINGTON *   CLOUDY    48  48 100 N5        30.03R
$$

ABBREVIATIONS USED IN REMARKS
   TC - TEMPERATURES IN CELSIUS
  WCI - WIND CHILL INDEX
   HX - HEAT INDEX
  VSB - VISIBILITY
$$





USA.gov is the U.S. government's official web portal to all federal, state and local government web resources and services.